GW6206 Weather Reports


Display with metric or nautical units.
time (UTC)temp
F
wind
direction
speed
MPH
gust
MPH
rain 1hr
in
rain 24hr
in
rain mn
in
humidity
%
barometer
mb
20260505011017 62 90 4.0 8.0 0.01 0.01 0.01 46 1005.9
20260505010016 62 68 5.0 12.0 0.01 0.01 0.01 46 1006.1
20260505005018 61 90 6.0 11.0 0.01 0.01 0.01 48 1006.2
20260505004023 61 113 5.0 9.0 0.01 0.01 0.01 51 1006.3
20260505003018 61 113 7.0 12.0 0.01 0.01 0.01 53 1006.4
20260505002019 63 135 8.0 14.0 0.00 0.00 0.00 49 1006.6
20260505001018 66 158 3.0 7.0 0.00 0.00 0.00 41 1007.0
20260505000017 69 225 3.0 6.0 0.00 0.00 0.00 35 1007.1
20260504235017 70 225 3.0 7.0 0.00 0.00 0.00 30 1007.3
20260504234038 71 135 2.0 5.0 0.00 0.00 0.00 30 1007.3
20260504233018 71 158 3.0 7.0 0.00 0.00 0.00 30 1007.2
20260504232017 73 135 5.0 11.0 0.00 0.00 0.00 30 1007.4
20260504231058 72 315 3.0 9.0 0.00 0.00 0.00 29 1007.3
20260504230016 71 225 4.0 7.0 0.00 0.00 0.00 29 1006.9
20260504225039 72 315 9.0 14.0 0.00 0.00 0.00 27 1007.3
20260504224018 73 315 5.0 10.0 0.00 0.00 0.00 27 1006.9
20260504223016 73 293 2.0 5.0 0.00 0.00 0.00 26 1007.1
20260504222018 73 225 4.0 11.0 0.00 0.00 0.00 25 1007.2
20260504221018 73 225 5.0 10.0 0.00 0.00 0.00 27 1007.6
20260504220017 74 270 4.0 14.0 0.00 0.00 0.00 28 1008.1
20260504215016 76 203 5.0 10.0 0.00 0.00 0.00 23 1008.2
20260504214017 76 293 2.0 5.0 0.00 0.00 0.00 21 1008.3
20260504213017 76 158 4.0 9.0 0.00 0.00 0.00 24 1008.6
20260504212018 75 203 4.0 8.0 0.00 0.00 0.00 28 1008.3
20260504211023 75 225 6.0 12.0 0.00 0.00 0.00 27 1008.8
20260504210017 75 180 7.0 18.0 0.00 0.00 0.00 27 1008.8
20260504205038 75 225 4.0 10.0 0.00 0.00 0.00 25 1008.9
20260504204018 76 180 4.0 11.0 0.00 0.00 0.00 24 1008.6
20260504203018 74 225 4.0 8.0 0.00 0.00 0.00 25 1008.7
20260504202020 74 248 4.0 8.0 0.00 0.00 0.00 26 1008.8
20260504201017 75 248 4.0 9.0 0.00 0.00 0.00 27 1008.9
20260504200019 74 203 3.0 7.0 0.00 0.00 0.00 28 1009.0
20260504195038 74 158 1.0 7.0 0.00 0.00 0.00 28 1009.2
20260504194017 74 180 6.0 11.0 0.00 0.00 0.00 29 1008.6
20260504193022 74 180 4.0 10.0 0.00 0.00 0.00 29 1008.7
20260504192016 73 113 4.0 9.0 0.00 0.00 0.00 32 1008.6
20260504191016 73 315 4.0 10.0 0.00 0.00 0.00 29 1008.9
20260504190017 72 315 3.0 8.0 0.00 0.00 0.00 29 1009.1
20260504185018 72 270 2.0 6.0 0.00 0.00 0.00 28 1009.2
20260504184037 73 180 3.0 8.0 0.00 0.00 0.00 31 1009.5
20260504183018 72 158 4.0 9.0 0.00 0.00 0.00 31 1009.6
20260504182018 71 45 2.0 6.0 0.00 0.00 0.00 31 1009.3
20260504181016 70 158 5.0 11.0 0.00 0.00 0.00 30 1009.8
20260504180019 70 180 2.0 7.0 0.00 0.00 0.00 32 1010.0
20260504175017 70 203 7.0 11.0 0.00 0.00 0.00 31 1010.1
20260504174017 70 203 5.0 8.0 0.00 0.00 0.00 33 1009.8
20260504173016 69 225 2.0 6.0 0.00 0.00 0.00 33 1010.0
20260504172018 69 158 2.0 9.0 0.00 0.00 0.00 35 1010.1
20260504171016 68 180 5.0 7.0 0.00 0.00 0.00 34 1010.0
20260504151018 60 23 1.0 3.0 0.00 0.00 0.00 48 1010.1
20260504141039 57 0.0 0.0 0.00 0.00 0.00 53 1010.3
20260504081018 61 90 2.0 8.0 0.00 0.00 0.00 35 1012.4
20260504045016 61 68 4.0 6.0 0.00 0.00 0.00 25 1010.5
20260504044038 61 45 2.0 5.0 0.00 0.00 0.00 25 1010.0
20260504043017 61 45 1.0 5.0 0.00 0.00 0.00 25 1010.0
20260504042016 61 45 4.0 6.0 0.00 0.00 0.00 28 1010.0
20260504041018 61 45 4.0 6.0 0.00 0.00 0.00 28 1009.9
20260504040016 61 45 1.0 4.0 0.00 0.00 0.00 28 1009.9
20260504035020 61 0.0 1.0 0.00 0.00 0.00 25 1009.7
20260504034017 62 45 3.0 6.0 0.00 0.00 0.00 25 1008.9
20260504033017 63 45 2.0 6.0 0.00 0.00 0.00 23 1009.2
20260504032017 63 0.0 0.0 0.00 0.00 0.00 22 1009.1
20260504031018 64 68 2.0 6.0 0.00 0.00 0.00 23 1009.0
20260504030016 64 68 3.0 6.0 0.00 0.00 0.00 22 1008.9
20260504025018 64 68 4.0 7.0 0.00 0.00 0.00 22 1008.9
20260504024038 65 45 6.0 9.0 0.00 0.00 0.00 23 1008.9
20260504023017 65 23 9.0 10.0 0.00 0.00 0.00 22 1008.9
20260504022019 65 23 8.0 10.0 0.00 0.00 0.00 22 1008.9
20260504021016 66 45 5.0 7.0 0.00 0.00 0.00 24 1008.6
20260504020016 67 23 2.0 8.0 0.00 0.00 0.00 24 1009.1
20260504015017 68 0 2.0 4.0 0.00 0.00 0.00 24 1009.2
20260504014018 69 338 2.0 3.0 0.00 0.00 0.00 22 1009.1
20260504013016 70 338 1.0 3.0 0.00 0.00 0.00 21 1009.2
20260504012018 71 315 1.0 3.0 0.00 0.00 0.00 19 1009.5